Location: Unspecified
(45.4615°N, 74.0512°W)
Time: 22:43:35
(UTC-04:00)

Okean 3 - Visible Passes

Search period start: 23 April 2019 00:00
Search period end: 03 May 2019 00:00
Orbit: 576 x 602 km, 82.5° (Epoch: 23 April)

Date Brightness Start Highest point End Pass type
(mag) Time Alt. Az. Time Alt. Az. Time Alt. Az.
23 Apr 6.3 00:35:16 10° NE 00:35:16 10° NE 00:35:23 10° NE visible
23 Apr 5.1 02:11:48 31° NNW 02:11:48 31° NNW 02:14:11 10° N visible
24 Apr 6.1 00:43:08 14° NE 00:43:08 14° NE 00:44:06 10° NE visible
24 Apr 5.2 02:19:39 27° NNW 02:19:39 27° NNW 02:21:58 10° N visible
25 Apr 5.8 00:50:59 19° NE 00:50:59 19° NE 00:52:30 10° NNE visible
25 Apr 5.4 02:27:30 22° NW 02:27:30 22° NW 02:29:40 10° NNW visible
26 Apr 5.5 00:58:49 24° NE 00:58:49 24° NE 01:00:43 10° NNE visible
26 Apr 5.7 02:35:20 17° NW 02:35:20 17° NW 02:37:12 10° NNW visible
27 Apr 5.3 01:06:39 29° NNE 01:06:39 29° NNE 01:08:49 10° NNE visible
27 Apr 5.9 02:43:10 13° NW 02:43:10 13° NW 02:44:24 10° NW visible
28 Apr 5.1 01:14:27 33° N 01:14:27 33° N 01:16:50 10° N visible
29 Apr 5.0 01:22:16 33° NNW 01:22:16 33° NNW 01:24:45 10° N visible
29 Apr 5.9 23:53:32 14° NE 23:53:32 14° NE 23:54:32 10° NE visible
30 Apr 5.1 01:30:03 30° NNW 01:30:03 30° NNW 01:32:34 10° N visible
01 May 5.6 00:01:19 19° NE 00:01:19 19° NE 00:02:58 10° NNE visible
01 May 5.3 01:37:50 24° NW 01:37:50 24° NW 01:40:17 10° NNW visible
02 May 5.2 00:09:05 25° NE 00:09:05 25° NE 00:11:13 10° NNE visible
02 May 5.6 01:45:36 19° NW 01:45:36 19° NW 01:47:51 10° NNW visible
